Weather History for Kendall, FL

Change the Weather History Date:

Wednesday, March 27, 2013

  Actual Average Record
Temperature  
Mean Temperature 58 °F -  
Max Temperature 72 °F 83 °F 89 °F (1997)
Min Temperature 45 °F 60 °F 45 °F (2006)
Degree Days  
Heating Degree Days 7    
Growing Degree Days 8 (Base 50)    
Moisture  
Dew Point 38 °F    
Average Humidity 50    
Maximum Humidity 80    
Minimum Humidity 35    
Precipitation  
Precipitation 0.00 in - - ()
Sea Level Pressure  
Sea Level Pressure 30.22 in    
Wind  
Wind Speed 11 mph (North)    
Max Wind Speed 16 mph    
Max Gust Speed 23 mph    
Visibility 10 miles    
Events      
Averages and records for this station are not official NWS values.
T = Trace of Precipitation, MM = Missing Value Source: NWS Daily Summary

Daily Weather History Graph

Daily Weather History Graph

Search for Another Location

Airport:

Trip Planner

Search our weather history database for the weather conditions in past years. The results will help you decide how hot, cold, wet, or windy it might be!

Date:

Astronomy

Mar. 27, 2013 Rise Set
Actual Time 7:18 AM EDT 7:36 PM EDT
Civil Twilight 6:55 AM EDT 7:59 PM EDT
Nautical Twilight 6:28 AM EDT 8:26 PM EDT
Astronomical Twilight 6:01 AM EDT 8:53 PM EDT
Moon 8:09 PM EDT (3/27) 7:12 AM EDT (3/27)
Length of Visible Light 13h 04m
Length of Day
12h 18m
Full, 100% of the Moon is Illuminated
Mar 27
Full
Apr 3
Last Quarter
Apr 10
New
Apr 18
First Quarter
Apr 25
Full

Hourly Weather History & Observations

Time (EDT) Temp. Windchill Dew Point Humidity Pressure Visibility Wind Dir Wind Speed Gust Speed Precip Events Conditions
12:53 AM 52.0 °F - 36.0 °F 54% 30.22 in 10.0 mi NNW 13.8 mph - N/A   Clear
1:53 AM 50.0 °F - 36.0 °F 59% 30.22 in 10.0 mi NNW 12.7 mph - N/A   Clear
2:53 AM 48.9 °F - 36.0 °F 61% 30.20 in 10.0 mi NNW 11.5 mph - N/A   Clear
3:53 AM 48.0 °F - 36.0 °F 63% 30.19 in 10.0 mi NNW 11.5 mph - N/A   Clear
4:53 AM 46.9 °F - 37.0 °F 68% 30.19 in 10.0 mi NNW 8.1 mph - N/A   Clear
5:53 AM 45.0 °F 41.2 °F 39.0 °F 80% 30.21 in 10.0 mi NNW 6.9 mph - N/A   Clear
6:53 AM 45.0 °F 40.6 °F 39.0 °F 80% 30.22 in 10.0 mi North 8.1 mph - N/A   Clear
7:53 AM 46.9 °F - 37.0 °F 68% 30.24 in 10.0 mi North 10.4 mph - N/A   Clear
8:53 AM 51.1 °F - 35.1 °F 54% 30.26 in 10.0 mi North 12.7 mph - N/A   Clear
9:53 AM 57.0 °F - 34.0 °F 42% 30.27 in 10.0 mi North 16.1 mph - N/A   Clear
10:53 AM 62.1 °F - 37.0 °F 39% 30.27 in 10.0 mi North 13.8 mph 23.0 mph N/A   Clear
11:53 AM 64.0 °F - 37.9 °F 38% 30.26 in 10.0 mi North 12.7 mph 21.9 mph N/A   Clear
12:53 PM 66.9 °F - 39.9 °F 37% 30.25 in 10.0 mi North 10.4 mph 16.1 mph N/A   Clear
1:53 PM 66.9 °F - 42.1 °F 40% 30.22 in 10.0 mi East 4.6 mph 16.1 mph N/A   Clear
2:53 PM 70.0 °F - 42.1 °F 36% 30.20 in 10.0 mi Variable 3.5 mph - N/A   Clear
3:53 PM 71.1 °F - 42.1 °F 35% 30.18 in 10.0 mi WNW 9.2 mph - N/A   Clear
4:53 PM 71.1 °F - 42.1 °F 35% 30.17 in 10.0 mi NW 10.4 mph 16.1 mph N/A   Clear
5:53 PM 70.0 °F - 41.0 °F 35% 30.18 in 10.0 mi WNW 13.8 mph - N/A   Clear
6:53 PM 66.9 °F - 39.0 °F 36% 30.19 in 10.0 mi North 10.4 mph - N/A   Partly Cloudy
7:53 PM 63.0 °F - 37.0 °F 38% 30.20 in 10.0 mi North 10.4 mph - N/A   Clear
8:53 PM 61.0 °F - 35.1 °F 38% 30.22 in 10.0 mi North 11.5 mph - N/A   Clear
9:53 PM 57.0 °F - 36.0 °F 45% 30.23 in 10.0 mi North 6.9 mph - N/A   Clear
10:53 PM 55.9 °F - 37.0 °F 49% 30.24 in 10.0 mi NNE 4.6 mph - N/A   Clear
11:53 PM 51.1 °F - 39.9 °F 66% 30.24 in 10.0 mi Calm Calm - N/A   Clear